Tracking 29892 objects as of 21-Nov-2024
HD Live streaming from Space Station
objects crossing your sky now

STARLINK-30516

Track STARLINK-30516 now!
10-day predictions
STARLINK-30516 is classified as:


NORAD ID: 57984
Int'l Code: 2023-151W
Perigee: 565.2 km
Apogee: 567.2 km
Inclination: 43.0 °
Period: 95.8 minutes
Semi major axis: 6937 km
RCS: Unknown
Launch date: September 30, 2023
Source: United States (US)
Launch site: AIR FORCE EASTERN TEST RANGE (AFETR)
Your satellite tracking list
Your tracking list is empty




NASA's NSSDC Master Catalog

Two Line Element Set (TLE):
1 57984U 23151W   24326.19638260  .00002172  00000-0  17581-3 0  9994
2 57984  43.0033  44.7045 0001462 256.1501 103.9179 15.02542312 64347
Source of the keplerian elements: AFSPC